Flag for Canada Weather past 2 weeks in St. Albert, Alberta, Canada

Now
66 °F

Mild.


Feels Like: 66 °F
Forecast: 61 / 83 °F
Wind: 10 mph from Southeast

Location: Edmonton Municipal

Current Time: Aug 3, 2015 at 5:49:18 AM

Latest Report: Aug 3, 2015 at 5:00 AM


Visibility: N/A

Pressure: 29.88 "Hg (27.68 "Hg at 653m altitude)

Humidity: 60%

Dew point: 52 °F

Location of St. AlbertLocation

Historic Weather in St. Albert — Graph

°F

St. Albert temperature yesterday

Maximum temperature yesterday: 80 °F (at 4:00 PM)
Minimum temperature yesterday: 57 °F (at 6:00 AM)
Average temperature yesterday: 69 °F

Past Weeks' High & Low Weather Summary

 TemperatureHumidityPressure
High84 °F (Jul 31, 6:00 PM)96% (Jul 21, 12:00 AM)30.19 "Hg (Jul 21, 12:00 AM)
Low49 °F (Jul 23, 4:00 AM)26% (Jul 30, 5:00 PM)29.67 "Hg (Jul 20, 10:00 PM)
Average65 °F58%29.91 "Hg
* Reported Jul 19 4:00 AM — Aug 3 4:00 AM, St. Albert, Weather by CustomWeather, © 2015

Note: Actual official high and low records may vary slightly from our data, if they occured in-between our weather recording intervals... More about our weather records

Advertising

St. Albert weather history for previous 24 hours

 ConditionsComfort  
Time TempWeatherWind HumidityBarometerVisibility
4:00 AM
Mon, Aug 3
66 °FMild.8 mph65%29.88 "HgN/A
3:00 AM68 °FMild.8 mph58%29.90 "HgN/A
2:00 AM69 °FMild.9 mph52%29.89 "HgN/A
1:00 AM69 °FMild.10 mph53%29.90 "HgN/A
12:00 AM70 °FMild.10 mph54%29.91 "HgN/A
11:00 PM
Sun, Aug 2
71 °FMild.9 mph55%29.91 "HgN/A
10:00 PM72 °FMild.8 mph56%29.92 "HgN/A
9:00 PM74 °FMild.9 mph48%29.92 "HgN/A
8:00 PM75 °FMild.10 mph46%29.92 "HgN/A
7:00 PM76 °FMild.9 mph43%29.93 "HgN/A
6:00 PM78 °FWarm.8 mph42%29.93 "HgN/A
5:00 PM79 °FPleasantly warm.9 mph37%29.94 "HgN/A
4:00 PM80 °FPleasantly warm.10 mph33%29.94 "HgN/A
3:00 PM79 °FPleasantly warm.8 mph33%29.96 "HgN/A
2:00 PM79 °FPleasantly warm.7 mph32%29.97 "HgN/A
1:00 PM77 °FPleasantly warm.6 mph39%29.98 "HgN/A
12:00 PM76 °FMild.5 mph40%29.99 "HgN/A
11:00 AM73 °FMild.6 mph47%30.01 "HgN/A
10:00 AM70 °FMild.6 mph59%30.01 "HgN/A
9:00 AM66 °FMild.6 mph62%30.01 "HgN/A
8:00 AM63 °FMild.6 mph74%30.02 "HgN/A
7:00 AM60 °FCool.1 mph80%30.02 "HgN/A
6:00 AM57 °FCool.5 mph83%30.02 "HgN/A
5:00 AM58 °FCool.5 mph84%30.02 "HgN/A
Weather by CustomWeather, © 2015

See weather overviewHow to use our weather pages